User: anonymous   Login
Location: PACMO
(41.3967°N, 90.3760°W)
Time: 18:18:26
(UTC-06:00)
Language:

BREEZE-M DEB (TANK) - Orbit

View from above orbital plane
View from above orbital plane
View from above satellite
View from above satellite

Ground track
Ground track

The orbit data is extracted from the following two-line orbital elements,

1 31863U 07032B   16336.87900323 +.00000183 +00000-0 +16472-3 0  9999
2 31863 045.9369 146.2403 4972855 195.8963 140.0505 05.52024096188588
Epoch (UTC): 01 December 2016 21:05:45
Eccentricity: 0.4972855
inclination: 45.9369°
perigee height: 420 km
apogee height: 13870 km
right ascension of ascending node: 146.2403°
argument of perigee: 195.8963°
revolutions per day: 5.52024096
mean anomaly at epoch: 140.0505°
orbit number at epoch: 18858

The dashed part of the orbit path shows where the satellite is in the earth's shadow,  

DLR